Regional Weather Roundup
Issued by NWS

Home | Current Version | Previous Version | Graphics & Text | Print | Product List | Glossary On
Versions: 1 2 3 4 5 6 7 8 9 10 11 12 13 14 15 16 17 18 19 20 21 22 23 24 25 26 27 28 29 30 31 32 33 34 35 36 37 38 39 40 41 42 43 44 45 46 47 48 49 50
300
ASUS43 KLSX 221557
RWRMO

WEATHER SUMMARY FOR MISSOURI
NATIONAL WEATHER SERVICE SPRINGFIELD MO
1100 AM CDT SUN APR 22 2018

NOTE: "FAIR" INDICATES FEW OR NO CLOUDS BELOW 12,000 FEET WITH NO
       SIGNIFICANT WEATHER AND/OR OBSTRUCTIONS TO VISIBILITY.
       CURRENT SKY AND/OR WEATHER CONDITIONS ARE NOT AVAILABLE FOR
       CHILLICOTHE AND FARMINGTON.

MOZ001>031-035>038-043-044-053-054-221700-
...NORTHERN AND WESTERN MISSOURI...

CITY           SKY/WX    TMP DP  RH WIND       PRES   REMARKS
KANSAS CTY INT CLOUDY    51  42  71 NE14      30.15R
LEE`S SUMMIT   LGT RAIN  46  44  93 NE13      30.13R
ST JOSEPH      CLOUDY    53  35  50 NE9       30.17S
CHILLICOTHE      N/A     55  34  45 NE9       30.18F

$$
MOZ066>068-077>081-088>096-101>105-221700-
...SOUTHWEST MISSOURI...

CITY           SKY/WX    TMP DP  RH WIND       PRES   REMARKS
SPRINGFIELD    LGT RAIN  54  53  97 E9        29.98R FOG
BRANSON        LGT RAIN  54  54 100 SE3       29.97R FOG

$$
MOZ032>034-039>042-045>050-055>058-069>072-221700-
...CENTRAL MISSOURI...

CITY           SKY/WX    TMP DP  RH WIND       PRES   REMARKS
COLUMBIA       NOT AVBL
JEFFERSON CITY LGT RAIN  54  46  74 E13G20    30.10F
ROLLA          LGT RAIN  52  49  89 E15       30.07F
SEDALIA        LGT RAIN  51  47  86 NE10      30.11S
WARRENSBURG    DRIZZLE   46  43  87 N10       30.11S

$$
MOZ051-052-059>065-221700-
...EAST CENTRAL MISSOURI...

CITY           SKY/WX    TMP DP  RH WIND       PRES   REMARKS
ST LOUIS INTL  CLOUDY    58  46  64 E14       30.14S

$$
MOZ072>076-082>087-097>100-106>115-221700-
...SOUTH CENTRAL AND SOUTHEAST MISSOURI...

CITY           SKY/WX    TMP DP  RH WIND       PRES   REMARKS
CAPE GIRARDEAU LGT RAIN  53  48  83 NE9       30.08F
FARMINGTON     LGT RAIN  52  52 100 E9        30.10S
POPLAR BLUFF   LGT RAIN  52  50  93 NE15G23   30.02F FOG
WEST PLAINS    CLOUDY    53  51  93 E10       29.99F FOG

$$




USA.gov is the U.S. government's official web portal to all federal, state and local government web resources and services.